Kos, Greece

9:45 PM EET on February 20, 2018 (GMT +0200)
Ippokratis

Weather History for LGKO - March, 2013

Change the Weather History Date:

Saturday, March 2, 2013

  Actual Average Record
Temperature  
Mean Temperature 53 °F -  
Max Temperature 60 °F 58 °F 65 °F (2016)
Min Temperature 46 °F 48 °F 37 °F (2012)
Degree Days  
Heating Degree Days 12    
Growing Degree Days 3 (Base 50)    
Moisture  
Dew Point 48 °F    
Average Humidity 77    
Maximum Humidity 87    
Minimum Humidity 63    
Precipitation  
Precipitation 0.00 in - - ()
Sea Level Pressure  
Sea Level Pressure 29.94 in    
Wind  
Wind Speed 8 mph ()    
Max Wind Speed 17 mph    
Max Gust Speed -    
Visibility 6.2 miles    
Events      
Averages and records for this station are not official NWS values.
T = Trace of Precipitation, MM = Missing Value Source: Averaged Metar Reports

Daily Weather History Graph

Daily Weather History Graph

Search for Another Location

Airport or City:

Trip Planner

Search our weather history database for the weather conditions in past years. The results will help you decide how hot, cold, wet, or windy it might be!

Date:

Astronomy

Mar. 02, 2013 Rise Set
Actual Time 6:41 AM EET 6:07 PM EET
Civil Twilight 6:15 AM EET 6:32 PM EET
Nautical Twilight 5:45 AM EET 7:03 PM EET
Astronomical Twilight 5:15 AM EET 7:33 PM EET
Moon 11:15 PM EET (3/2) 9:03 AM EET (3/2)
Length of Visible Light 12h 17m
Length of Day
11h 25m
Waning Gibbous, 77% of the Moon is Illuminated
Mar 2
Waning Gibbous
Mar 4
Last Quarter
Mar 11
New
Mar 19
First Quarter
Mar 27
Full

Hourly Weather History & Observations

Time (EET) Temp. Windchill Dew Point Humidity Pressure Visibility Wind Dir Wind Speed Gust Speed Precip Events Conditions
12:50 AM 50.0 °F - 41.0 °F 71% 29.95 in - North 6.9 mph - N/A   Clear
1:50 AM 48.2 °F - 41.0 °F 76% 29.95 in - North 6.9 mph - N/A   Clear
2:50 AM 48.2 °F - 41.0 °F 76% 29.95 in - North 4.6 mph - N/A   Clear
3:50 AM 46.4 °F 42.4 °F 41.0 °F 81% 29.95 in - North 8.1 mph - N/A   Clear
4:50 AM 46.4 °F 42.9 °F 41.0 °F 81% 29.95 in - North 6.9 mph - N/A   Clear
5:50 AM 46.4 °F 43.5 °F 41.0 °F 81% 29.95 in - North 5.8 mph - N/A   Clear
6:20 AM 46.4 °F 43.5 °F 41.0 °F 81% 29.95 in - North 5.8 mph - N/A   Clear
6:50 AM 46.4 °F - 41.0 °F 81% 29.95 in - Calm Calm - N/A   Clear
7:20 AM 46.4 °F - 41.0 °F 81% 29.95 in 6.2 mi Calm Calm - N/A   Partly Cloudy
7:50 AM 48.2 °F - 44.6 °F 87% 29.98 in 6.2 mi East 2.3 mph - N/A   Partly Cloudy
8:20 AM 48.2 °F - 44.6 °F 87% 29.98 in 6.2 mi ESE 3.5 mph - N/A   Partly Cloudy
8:50 AM 55.4 °F - 48.2 °F 77% 29.98 in 6.2 mi ESE 8.1 mph - N/A   Partly Cloudy
9:20 AM 55.4 °F - 48.2 °F 77% 29.98 in - SE 9.2 mph - N/A   Clear
9:50 AM 57.2 °F - 48.2 °F 72% 29.95 in - SE 11.5 mph - N/A   Clear
10:20 AM 57.2 °F - 48.2 °F 72% 29.95 in - SSE 15.0 mph - N/A   Clear
10:50 AM 59.0 °F - 46.4 °F 63% 29.98 in 6.2 mi SE 16.1 mph - N/A   Partly Cloudy
11:20 AM 59.0 °F - 46.4 °F 63% 29.98 in 6.2 mi SE 15.0 mph - N/A   Partly Cloudy
11:50 AM 59.0 °F - 50.0 °F 72% 29.95 in 6.2 mi SE 15.0 mph - N/A   Scattered Clouds
12:20 PM 59.0 °F - 50.0 °F 72% 29.95 in 6.2 mi SSE 16.1 mph - N/A   Scattered Clouds
12:50 PM 60.8 °F - 51.8 °F 72% 29.95 in 6.2 mi SSE 17.3 mph - N/A   Mostly Cloudy
1:20 PM 60.8 °F - 51.8 °F 72% 29.95 in 6.2 mi SE 16.1 mph - N/A   Mostly Cloudy
1:50 PM 59.0 °F - 51.8 °F 77% 29.92 in 6.2 mi SE 12.7 mph - N/A   Mostly Cloudy
2:20 PM 59.0 °F - 51.8 °F 77% 29.92 in 6.2 mi SSE 12.7 mph - N/A   Mostly Cloudy
2:50 PM 59.0 °F - 51.8 °F 77% 29.89 in 6.2 mi SSE 13.8 mph - N/A   Mostly Cloudy
3:20 PM 59.0 °F - 51.8 °F 77% 29.89 in 6.2 mi SSE 12.7 mph - N/A   Mostly Cloudy
3:50 PM 59.0 °F - 51.8 °F 77% 29.89 in 6.2 mi SSE 13.8 mph - N/A   Mostly Cloudy
4:20 PM 59.0 °F - 51.8 °F 77% 29.89 in 6.2 mi SE 17.3 mph - N/A   Mostly Cloudy
4:50 PM 59.0 °F - 50.0 °F 72% 29.89 in 6.2 mi SE 17.3 mph - N/A   Mostly Cloudy
5:20 PM 59.0 °F - 50.0 °F 72% 29.89 in 6.2 mi SE 12.7 mph - N/A   Mostly Cloudy
5:50 PM 57.2 °F - 50.0 °F 77% 29.92 in 6.2 mi SE 11.5 mph - N/A   Scattered Clouds
6:20 PM 57.2 °F - 50.0 °F 77% 29.92 in 6.2 mi SSE 8.1 mph - N/A   Scattered Clouds
6:50 PM 57.2 °F - 50.0 °F 77% 29.92 in 6.2 mi SSE 8.1 mph - N/A   Scattered Clouds
7:20 PM 57.2 °F - 50.0 °F 77% 29.92 in 6.2 mi SE 11.5 mph - N/A   Scattered Clouds
7:50 PM 55.4 °F - 50.0 °F 82% 29.92 in 6.2 mi SE 11.5 mph - N/A   Scattered Clouds
8:50 PM 55.4 °F - 50.0 °F 82% 29.92 in 6.2 mi SE 13.8 mph - N/A   Scattered Clouds
9:50 PM 57.2 °F - 50.0 °F 77% 29.92 in 6.2 mi SE 15.0 mph - N/A   Mostly Cloudy
10:50 PM 57.2 °F - 50.0 °F 77% 29.89 in 6.2 mi SE 12.7 mph - N/A   Mostly Cloudy
11:50 PM 55.4 °F - 50.0 °F 82% 29.89 in 6.2 mi SE 13.8 mph - N/A   Mostly Cloudy